Theta_e
310 309 309 310 310 309 308 308 308 308 307 306 307 308 307 308 308 305 303 303 306 311 311 310 311 312 311 316 319 320 326 326 327 326 326 324 327 323 319 321 322 329 337 336 343
309 309 309 307 307 307 307 307 308 308 307 307 307 306 306 307 305 303 308 311 310 310 304 305 313 313 312 317 318 321 323 324 321 323 325 326 329 323 323 320 323 341 340 342 343
308 307 307 307 306 306 306 307 306 306 306 307 306 306 306 306 302 308 310 311 311 309 306 306 313 310 312 315 317 319 322 319 320 321 325 326 329 328 327 320 320 341 341 340 340
307 307 307 306 306 306 305 306 306 306 306 306 306 305 306 305 306 306 306 307 305 304 305 305 309 312 314 316 313 319 319 320 321 323 325 327 328 329 328 324 319 335 336 336 340
307 306 306 306 305 306 306 305 306 306 306 305 305 305 306 305 304 304 305 304 304 303 305 305 307 309 312 314 314 317 317 318 320 321 321 326 328 329 327 325 323 329 336 337 339
306 306 305 306 305 306 306 305 305 305 305 305 305 305 305 306 303 304 303 304 303 303 304 305 305 305 308 310 312 313 314 315 315 319 321 323 325 327 326 324 324 321 335 335 337
306 306 305 305 305 305 304 304 305 305 305 305 304 304 303 304 304 302 303 303 304 304 303 305 305 304 305 311 310 313 314 313 313 317 320 321 323 324 326 325 326 322 333 333 337
305 305 305 304 304 304 303 304 304 301 304 305 304 304 302 304 302 302 302 302 303 304 305 305 305 306 306 307 309 313 315 315 313 314 318 322 325 320 319 324 326 325 330 333 336
305 305 304 304 304 303 302 299 299 299 302 303 304 302 304 302 301 301 301 301 302 304 305 305 305 306 308 309 309 313 314 314 313 314 319 321 323 321 321 324 326 324 321 333 334
304 304 304 304 304 303 302 299 298 300 299 302 303 301 302 300 301 302 303 302 301 303 306 305 304 305 306 311 307 309 314 315 313 314 316 322 322 321 323 324 322 323 322 324 332
304 304 303 303 303 301 302 299 298 298 298 300 300 300 300 300 301 301 301 302 302 303 303 306 306 308 303 306 308 310 312 314 314 313 315 318 323 321 321 323 324 324 324 323 332
303 303 303 303 299 302 301 299 299 299 300 299 300 300 300 301 301 300 302 302 303 303 304 307 306 305 305 306 310 310 310 311 313 313 313 315 323 321 323 323 323 324 322 323 329
303 302 300 297 299 301 299 299 299 300 299 300 301 299 300 301 301 301 302 303 303 303 303 303 303 304 305 308 310 312 311 311 313 313 315 314 319 323 323 322 321 322 321 322 323
301 299 297 299 300 302 299 298 299 300 301 297 299 300 299 299 302 303 304 303 304 304 304 303 304 305 305 305 309 310 311 311 312 315 320 314 318 321 322 322 320 321 321 322 321
299 299 296 301 300 301 297 298 299 301 291 297 299 299 298 300 300 304 304 304 305 304 304 303 304 305 305 303 307 308 312 312 315 315 318 317 316 313 320 323 320 319 321 321 321
297 297 297 298 299 299 297 299 299 296 288 298 298 298 298 300 300 301 304 304 304 304 304 304 303 304 304 304 304 309 311 312 314 316 319 314 315 315 322 322 321 319 320 320 322
293 297 299 300 298 296 297 298 295 291 296 297 298 298 299 299 299 297 298 302 298 297 298 301 305 304 304 304 304 310 306 311 314 314 317 319 321 317 316 320 320 320 319 319 325
295 299 300 300 297 297 298 292 291 297 296 296 297 298 299 298 297 296 297 298 301 295 289 297 300 306 304 304 302 307 307 311 309 303 312 320 323 317 315 317 320 320 320 320 326
297 299 299 292 298 299 295 290 290 295 295 296 297 297 296 297 294 293 295 302 305 298 298 298 301 305 304 303 303 302 306 310 307 303 312 315 315 313 314 316 319 320 319 320 326
299 299 297 293 298 300 292 294 296 296 296 296 297 296 297 296 291 291 292 300 303 299 298 300 302 308 307 305 302 305 306 308 301 301 312 311 313 312 314 313 317 319 317 319 326
299 294 295 294 296 293 290 291 295 295 295 295 296 295 294 293 292 293 293 300 297 294 295 299 303 301 307 306 303 307 309 306 305 304 310 315 311 306 304 304 308 315 316 320 325
298 293 295 296 291 291 288 293 295 294 294 295 294 295 295 292 291 290 296 296 295 293 291 301 299 300 304 308 306 306 308 306 302 313 307 316 309 304 303 302 304 313 318 321 324
293 294 296 293 287 286 291 295 295 293 293 293 293 294 293 292 288 292 293 294 295 293 291 301 295 297 304 308 306 306 307 306 308 312 313 317 309 303 304 302 302 303 309 322 322
292 287 287 289 286 290 290 293 294 293 293 292 293 293 291 291 292 291 292 294 292 293 299 297 294 302 302 305 306 303 301 308 311 313 314 314 307 306 306 305 304 304 302 316 320
290 289 290 287 288 288 287 291 292 292 292 292 292 292 291 283 287 289 291 291 291 295 294 292 294 295 299 301 302 303 298 304 309 312 313 307 307 304 301 300 300 303 303 306 314
289 288 288 289 292 286 288 287 293 292 292 291 291 291 291 287 289 289 291 289 290 292 288 290 292 298 299 308 303 308 306 308 308 308 306 305 304 300 299 299 300 299 302 304 305
295 295 292 293 289 285 286 287 290 290 290 291 291 290 291 291 291 292 292 292 291 291 290 295 293 297 295 304 309 306 302 308 303 301 302 304 302 300 298 298 297 299 299 301 303
Wind_Speed
20 21 21 22 23 23 24 24 24 24 24 24 23 23 23 24 24 27 19 20 18 12 13 16 21 20 15 5 8 3 7 11 19 21 4 5 6 6 1 4 4 3 7 13 25
20 21 22 22 23 24 24 24 24 24 25 24 24 23 23 22 23 22 11 7 3 7 12 11 12 12 5 5 5 8 9 9 5 12 5 8 3 7 1 3 5 8 16 20 23
20 21 22 22 23 24 25 25 25 25 24 24 23 21 20 17 7 4 10 6 2 13 16 14 10 8 6 6 4 5 11 12 15 9 4 13 5 8 3 2 5 9 15 16 18
20 21 23 24 25 26 27 26 26 26 25 23 21 20 15 11 3 4 15 7 10 11 10 18 5 7 6 11 9 10 6 11 12 7 4 3 2 7 4 3 2 9 10 6 14
20 22 23 25 25 27 28 28 28 27 25 22 20 13 7 3 7 13 10 5 9 4 1 6 4 5 8 6 9 14 8 11 9 18 12 8 4 7 9 9 12 7 12 12 13
21 23 24 25 27 28 29 29 29 26 23 20 12 9 4 4 8 9 9 9 5 3 2 4 4 8 7 5 6 4 10 14 14 13 7 14 8 5 10 5 10 9 14 14 15
22 23 24 25 27 29 31 31 29 27 22 17 9 4 5 10 9 9 11 12 7 8 5 6 5 6 7 6 10 6 8 10 10 12 7 13 10 13 7 7 15 15 14 12 17
22 23 24 25 27 29 31 31 30 23 19 14 7 7 5 11 4 10 10 12 6 7 10 10 8 4 1 8 6 4 1 7 1 7 11 14 18 18 16 6 13 9 8 12 15
22 24 25 26 27 28 27 33 25 16 14 11 7 5 6 5 11 21 14 9 9 6 10 2 5 1 3 1 4 4 4 8 7 9 4 10 3 7 14 13 13 5 9 10 14
22 24 26 28 27 24 24 27 25 5 16 2 6 1 3 8 15 19 11 7 5 1 5 2 3 0 1 4 8 5 9 5 8 5 10 9 8 4 11 16 18 5 6 7 16
23 25 27 28 27 19 22 11 8 6 9 4 10 5 10 12 9 11 10 8 2 2 3 5 2 4 10 10 5 8 9 7 5 9 8 13 14 10 11 13 15 6 1 7 10
24 26 28 29 22 13 11 5 5 6 8 7 10 8 10 4 4 8 3 4 3 5 4 2 6 11 9 11 7 10 13 12 10 13 9 10 13 14 13 14 19 11 4 4 5
25 27 29 24 10 12 11 10 11 6 3 8 4 2 7 2 5 5 5 4 5 5 6 4 8 8 4 8 5 9 13 13 11 12 6 3 7 11 6 4 8 10 9 5 5
26 29 23 22 4 18 5 19 12 3 3 6 3 3 7 8 1 6 4 2 5 4 7 6 5 5 7 4 8 4 5 9 14 8 3 1 3 8 11 11 13 13 14 10 3
26 27 17 11 10 5 16 19 7 1 5 9 6 6 14 4 6 4 2 3 3 5 3 5 7 6 4 5 10 5 5 3 4 4 4 2 2 6 13 13 13 13 15 16 11
28 22 12 11 13 10 23 11 2 4 3 7 7 11 12 8 6 7 6 5 3 5 3 14 6 4 5 7 4 4 1 4 2 2 4 4 6 4 10 20 13 12 12 14 13
28 13 8 11 9 27 17 3 4 6 8 9 9 14 10 10 9 11 4 5 3 6 9 8 2 1 7 3 1 5 4 0 2 3 2 3 3 10 4 14 15 18 16 14 14
22 8 8 7 23 19 8 5 9 4 5 7 8 12 7 16 7 13 7 3 6 4 2 4 7 6 3 5 5 5 4 3 5 4 3 6 3 6 9 9 11 14 15 15 16
18 5 7 28 21 15 5 6 5 4 8 7 11 6 6 10 6 8 6 2 6 5 4 5 5 3 9 5 5 4 3 2 3 3 3 4 3 8 2 3 9 11 12 17 20
12 4 12 31 14 7 5 3 3 5 6 5 5 4 5 9 8 6 4 2 3 6 2 3 7 3 6 3 6 1 5 2 2 2 2 2 3 2 2 7 10 14 15 13 18
4 4 24 25 10 5 3 2 3 6 8 3 3 4 5 5 3 5 5 5 6 8 7 3 4 6 1 2 6 4 2 1 3 3 2 2 1 2 3 5 5 11 13 15 19
4 4 26 14 5 2 3 7 6 5 6 4 5 5 5 6 4 3 3 4 10 15 4 3 3 5 6 7 7 5 5 3 3 1 0 2 3 5 5 6 8 6 13 17 21
2 1 15 14 4 4 6 6 4 7 6 5 4 4 4 5 5 4 6 8 13 12 1 6 3 5 5 2 4 4 2 4 3 2 2 2 1 7 8 9 10 10 7 15 17
3 3 4 4 1 3 3 5 7 8 4 8 4 5 9 5 0 9 9 8 15 11 10 4 3 4 3 5 1 5 3 2 4 1 3 0 1 12 12 10 11 12 9 6 12
3 1 4 3 4 3 3 3 5 8 3 6 5 10 6 4 7 3 7 11 9 4 6 3 4 2 10 17 15 11 4 5 5 1 2 4 5 10 10 10 10 12 12 10 6
3 3 3 1 3 4 5 4 5 4 3 5 7 10 4 4 6 13 10 1 7 5 6 3 4 5 5 10 4 3 6 6 7 6 12 9 9 6 6 12 16 14 14 13 10
5 2 3 4 3 4 3 4 5 5 5 5 4 5 6 6 12 17 14 13 13 8 3 3 2 4 5 5 2 6 9 5 9 13 4 5 4 7 12 14 14 13 14 14 10
Wind_Direction
349 349 347 343 341 338 335 331 328 327 323 322 319 318 318 319 319 308 288 267 267 296 309 303 282 283 279 240 208 170 228 227 224 230 220 306 204 262 156 92 36 82 125 152 154
347 347 346 341 337 336 332 328 326 324 321 319 319 320 318 320 317 299 330 255 223 338 331 301 265 258 252 219 198 204 224 228 230 236 211 251 306 205 38 85 30 89 110 122 144
346 344 344 341 339 335 330 326 325 323 320 319 317 318 318 323 322 210 32 60 56 340 337 313 254 220 239 230 205 199 238 204 259 258 258 267 310 339 125 250 162 158 146 139 126
344 345 342 341 337 333 330 325 324 322 319 317 317 315 318 303 303 253 322 335 333 326 348 342 300 237 244 231 231 243 230 243 267 287 220 286 357 295 274 218 312 165 154 153 145
346 343 340 338 333 330 328 325 322 320 318 315 314 315 318 279 252 329 328 326 320 15 17 2 318 288 257 268 259 240 241 251 231 256 243 188 238 194 270 277 331 165 163 170 167
345 344 341 336 333 329 327 324 322 321 321 319 316 305 278 263 285 313 339 308 279 153 100 105 351 331 287 259 281 313 225 253 263 271 254 253 231 163 250 346 326 251 174 166 172
346 342 338 336 334 331 328 325 323 320 316 317 326 297 276 257 289 311 321 312 280 224 173 181 177 352 343 303 346 287 278 298 273 256 232 244 268 216 249 360 312 322 167 160 170
345 342 339 338 336 332 329 325 321 325 315 303 290 277 253 279 314 341 345 322 337 308 250 174 165 175 217 315 327 332 236 238 214 253 241 166 243 237 218 180 269 308 226 163 165
344 340 339 338 335 333 336 336 333 324 320 292 274 196 268 344 357 330 315 284 298 34 35 65 95 350 180 84 333 248 260 221 271 231 195 176 240 211 197 165 243 299 329 174 152
343 340 338 336 334 337 342 345 342 328 347 174 264 155 315 324 334 317 328 297 230 241 86 102 28 294 224 173 208 210 223 253 219 230 219 176 209 202 175 173 246 245 299 350 170
343 340 335 334 333 343 346 358 14 351 21 284 284 259 274 307 321 307 321 329 358 142 254 155 201 216 223 218 235 300 297 302 302 249 221 215 201 206 176 174 195 222 345 10 204
342 339 335 333 338 351 8 47 43 284 318 293 260 249 281 317 298 304 115 26 342 306 313 166 234 239 230 217 207 232 257 269 283 270 247 233 206 198 177 194 193 205 6 343 217
343 340 340 344 349 5 48 39 346 323 283 295 254 268 283 243 271 328 43 2 315 322 318 236 254 299 285 269 201 243 223 248 264 327 284 265 236 188 203 141 159 163 200 152 346
344 343 349 352 40 348 69 352 345 326 356 321 327 285 325 315 54 73 37 42 346 327 323 270 288 274 261 186 200 252 225 244 251 271 237 95 264 204 188 194 181 169 177 212 130
344 344 356 7 329 4 338 335 346 288 57 323 356 338 324 337 306 5 1 54 323 306 317 268 317 359 351 217 174 201 89 48 298 212 275 222 102 272 186 206 195 192 182 195 148
344 343 354 3 346 328 331 335 331 42 299 357 327 339 341 347 9 21 38 31 282 301 242 261 251 283 224 324 264 133 69 55 63 190 250 192 150 272 196 204 198 192 169 178 156
348 346 355 355 338 334 339 25 38 82 331 344 328 329 332 353 359 1 37 20 39 8 348 316 279 249 197 288 132 92 109 154 207 167 165 246 97 249 311 200 198 187 177 176 153
351 353 17 8 342 345 0 51 63 301 6 314 320 322 25 14 343 346 10 16 44 38 352 8 332 8 343 201 175 164 165 168 174 167 152 120 229 257 230 225 216 191 163 159 166
353 22 39 359 348 348 63 46 185 356 345 318 325 13 341 4 337 8 354 19 48 26 40 328 282 256 286 205 158 243 186 135 84 288 85 207 286 304 281 172 180 178 169 178 175
345 13 14 356 355 29 66 98 22 4 331 358 11 14 336 336 16 21 349 5 357 43 165 270 289 19 334 250 216 230 178 71 7 81 164 275 172 165 237 237 180 190 182 174 173
347 46 1 358 22 46 102 247 350 347 15 331 301 308 349 344 306 313 272 316 44 330 318 204 253 295 303 249 170 102 225 356 122 132 126 117 217 0 320 341 287 198 179 160 172
9 45 3 12 45 34 19 319 349 341 347 342 337 11 12 353 313 305 302 259 31 0 340 322 266 278 251 301 299 154 161 145 118 227 64 62 302 328 4 342 25 73 176 158 162
72 326 18 42 66 339 329 353 333 15 337 16 306 13 6 22 345 291 328 315 1 344 344 330 313 315 349 146 351 55 183 149 74 21 83 297 218 359 17 27 27 33 41 156 144
74 31 338 33 111 117 22 335 339 343 339 340 301 18 6 329 79 293 292 309 334 327 26 3 267 248 264 288 212 289 329 188 158 142 133 251 48 11 12 23 25 28 27 78 144
43 242 178 343 340 53 79 333 358 353 1 327 343 9 352 307 314 248 333 329 305 334 12 92 278 240 267 272 261 248 198 165 154 351 140 132 61 23 13 15 11 39 36 48 53
93 65 355 249 314 58 358 303 319 341 279 306 330 316 300 235 235 294 316 15 250 317 352 338 280 318 294 358 163 182 174 118 65 82 96 89 76 27 13 26 26 31 36 36 19
38 78 101 287 347 69 253 255 296 339 293 285 316 318 289 263 286 278 267 256 248 276 306 276 281 341 275 342 305 55 343 107 86 46 353 67 17 42 36 31 14 10 38 23 359